Temp
23 21 20 20 20 19 19 19 19 18 18 17 17 17 16 16 16 15 15 15 15 15 14 14 13 13 13 13 12 12 12 12
24 22 20 20 20 19 19 19 19 18 17 17 17 16 16 16 16 15 15 14 14 14 14 14 13 13 12 12 12 11 11 11
23 21 20 20 20 19 19 19 19 18 18 18 17 17 17 16 15 14 14 14 14 13 13 12 12 12 12 11 11 11 11 10
21 21 19 19 20 19 19 19 19 19 18 18 17 17 16 15 14 14 13 13 13 13 12 12 12 11 11 10 10 10 10 9
21 20 19 19 19 20 19 20 19 18 19 18 17 16 15 14 14 13 13 13 13 12 12 11 11 10 10 10 10 9 9 7
20 20 20 20 20 20 20 19 19 19 18 18 17 16 14 14 14 14 13 13 12 11 11 10 10 9 9 9 8 8 7 7
20 21 21 20 20 20 19 19 18 18 17 17 16 15 14 14 13 13 12 11 11 10 10 9 8 8 8 8 7 7 6 6
18 18 18 19 19 18 18 18 17 17 16 16 15 15 15 14 13 12 11 11 10 10 9 8 8 8 8 7 7 6 6 5
18 19 20 18 18 18 18 17 15 15 15 15 14 14 14 13 12 11 10 10 9 9 8 8 8 7 7 7 7 6 6 5
19 19 18 17 18 18 17 16 15 14 14 14 13 13 12 12 11 10 10 9 9 8 8 7 7 7 7 7 7 6 6 5
17 18 17 17 18 18 17 16 15 14 14 13 13 12 12 11 10 10 9 8 8 7 7 7 7 7 7 6 6 6 6 5
17 18 17 18 18 18 18 16 15 14 13 13 12 11 11 10 10 9 9 8 7 7 7 6 6 6 6 6 6 5 5 4
18 18 17 17 17 17 17 16 15 14 13 12 11 11 10 10 9 9 8 8 7 7 6 6 6 6 6 5 5 5 4 4
19 18 17 17 16 16 17 16 15 14 13 12 11 11 10 10 10 9 8 8 7 7 6 6 6 6 6 5 5 4 4 3
19 19 17 17 16 16 16 16 15 14 13 12 12 11 11 10 10 9 8 7 7 6 6 6 6 6 5 5 4 4 3 3
19 17 15 17 16 15 15 16 15 14 13 12 12 11 11 10 9 8 8 7 7 7 6 6 6 6 5 4 4 4 3 3
19 18 16 16 15 15 15 15 15 14 13 12 12 11 10 9 8 7 6 6 6 7 6 6 6 6 5 4 3 3 2 2
19 18 16 16 16 16 16 15 14 14 13 12 10 10 9 7 6 5 6 6 7 7 7 6 6 6 5 4 3 2 2 1
18 19 19 18 18 17 16 15 14 13 12 9 8 8 7 6 5 6 7 7 6 6 7 6 6 5 4 3 2 2 1 -0
Height
803 807 811 814 821 827 830 834 836 839 843 847 849 851 853 856 857 858 862 864 864 865 866 866 865 865 865 864 863 862 861 859
801 806 810 814 819 824 828 832 836 839 842 845 849 850 852 855 858 861 863 863 864 865 865 865 864 863 862 861 860 859 858 856
800 803 808 811 815 821 825 830 834 836 839 843 846 847 851 855 858 861 862 863 863 864 864 863 862 861 860 859 857 856 856 854
798 800 804 808 812 817 822 826 830 834 837 841 845 848 851 854 858 859 860 861 861 862 861 860 859 859 857 856 855 854 853 853
789 796 801 806 810 814 818 822 826 831 834 836 839 843 846 851 854 856 857 857 857 857 856 856 856 856 856 854 854 852 851 852
784 790 797 805 809 813 818 820 824 828 831 832 836 840 844 847 850 851 853 854 855 854 854 854 855 855 854 852 852 851 851 853
783 788 794 802 808 811 814 818 822 825 828 831 833 835 839 843 846 848 850 852 853 853 853 852 854 854 854 853 853 852 852 851
783 788 793 799 805 810 813 815 820 823 826 830 832 835 837 840 843 846 848 849 850 850 851 851 853 854 853 852 852 851 851 851
782 785 790 797 804 808 810 815 818 821 825 830 833 835 837 839 842 844 848 850 851 850 850 849 852 853 851 850 850 850 850 849
780 786 791 796 802 807 810 813 817 821 825 829 833 835 836 838 841 844 847 849 851 853 851 850 851 850 850 848 848 848 846 847
781 785 790 794 800 806 811 814 817 821 826 830 833 836 838 839 841 843 845 845 848 850 848 850 850 847 846 846 845 844 844 843
777 783 787 791 796 801 807 811 815 820 825 830 834 837 839 840 842 843 844 845 847 847 848 849 848 846 844 842 842 842 840 840
769 774 780 786 790 795 800 805 810 816 822 827 832 836 838 840 841 842 844 845 845 846 846 846 846 844 842 840 839 839 837 835
765 769 773 778 784 789 794 798 804 809 815 821 827 832 835 838 840 841 843 844 844 844 844 843 842 840 838 837 837 837 835 834
761 763 766 770 774 779 786 792 798 804 810 815 820 827 831 835 837 840 841 842 842 842 842 841 839 837 834 834 835 835 834 831
763 761 763 767 773 779 785 791 795 800 806 811 816 821 827 832 836 837 839 839 839 838 836 835 834 832 831 830 830 830 829 829
759 759 763 765 770 776 783 787 791 796 801 807 812 818 824 827 832 835 837 835 833 831 832 830 828 827 827 827 827 827 827 827
760 762 764 766 770 774 777 780 786 792 798 804 807 811 816 822 828 830 831 830 827 826 825 824 823 822 821 821 823 823 824 824
762 762 764 767 768 770 773 778 784 791 797 802 806 809 814 820 824 827 826 825 823 821 820 818 816 815 816 817 818 819 819 822
Wind_Speed
27 33 37 36 32 29 30 27 25 20 17 15 18 20 19 18 16 14 10 8 9 10 6 7 6 4 7 11 13 11 10 12
29 33 38 38 35 32 30 28 23 20 20 21 22 22 24 17 14 13 13 13 9 5 1 4 6 9 10 11 9 12 14 8
19 29 34 38 38 35 31 26 23 23 23 27 27 28 20 15 16 13 9 6 5 4 4 5 6 8 9 8 11 13 10 6
12 22 33 34 38 37 34 28 22 24 23 27 26 25 22 21 19 14 12 9 6 2 4 6 8 10 9 10 10 5 5 4
12 15 24 31 33 37 34 29 22 27 31 33 34 30 24 23 19 14 8 3 2 4 5 7 11 13 13 11 11 9 1 6
13 15 24 31 34 33 31 27 29 22 24 26 26 29 26 23 16 9 5 2 1 2 5 9 12 11 13 10 3 3 8 8
11 21 27 28 29 29 30 31 25 26 25 25 29 30 25 18 12 8 6 5 2 2 6 9 10 10 4 4 7 8 9 10
12 12 19 28 23 32 32 30 26 24 25 27 27 24 19 14 12 8 6 5 1 3 8 7 9 10 4 7 12 10 10 9
13 17 20 22 30 32 31 30 27 24 23 21 19 17 15 13 12 8 5 2 2 4 4 7 7 8 7 11 10 12 11 8
13 12 22 27 31 28 30 30 27 24 22 20 18 17 17 15 11 7 5 0 3 6 8 8 9 8 10 11 11 11 9 11
8 15 22 28 31 27 23 28 28 27 24 22 19 17 15 12 10 8 5 2 4 5 7 9 9 10 9 9 7 5 9 10
11 17 25 33 33 30 26 27 30 28 25 22 16 14 13 11 10 7 6 3 4 5 7 10 10 10 11 7 8 8 6 2
13 21 26 28 32 35 33 28 34 31 28 20 17 16 15 11 10 9 5 6 4 5 8 10 12 13 5 10 12 10 2 5
13 14 22 27 28 32 36 30 35 34 28 21 21 18 16 14 11 7 8 5 6 7 10 12 12 9 10 10 10 1 1 3
13 13 15 27 32 35 37 33 34 34 27 26 25 20 19 16 13 9 6 7 8 9 12 14 16 11 10 9 8 5 5 3
7 9 9 21 24 24 31 32 31 31 28 28 21 20 21 15 7 1 9 10 12 15 15 17 16 16 13 13 12 12 8 9
7 5 10 18 23 26 30 31 31 29 29 22 15 19 16 11 5 11 13 14 18 23 19 17 16 13 14 14 12 11 8 8
7 6 9 16 24 30 33 33 32 29 26 19 23 22 13 7 3 9 18 19 21 21 21 21 17 14 13 13 11 10 8 6
6 3 5 16 25 29 31 30 31 28 22 23 19 14 7 7 8 19 15 14 16 16 20 19 17 15 12 12 11 10 7 7
Wind_Direction
149 146 150 152 156 163 154 158 157 144 137 140 130 123 124 122 116 117 113 107 103 92 92 74 41 19 357 354 350 347 343 334
162 153 155 156 160 159 161 166 164 155 153 148 150 142 137 136 140 142 124 116 106 109 17 319 314 324 335 339 343 338 337 324
166 150 157 160 165 165 167 177 183 174 171 168 161 157 158 150 147 136 128 128 97 39 29 31 13 355 339 328 335 330 321 5
175 159 159 165 167 169 174 179 187 191 190 178 167 154 147 145 142 128 120 122 118 75 4 346 343 338 344 343 338 345 317 355
164 157 157 164 170 173 177 178 185 168 162 156 159 159 146 151 142 130 128 137 297 301 321 330 333 337 334 326 317 313 155 80
163 155 154 167 170 171 176 168 152 157 158 162 165 145 141 139 143 147 154 186 181 300 320 327 340 346 332 324 3 38 51 42
147 151 152 161 167 172 166 155 146 152 154 156 155 152 150 152 147 155 162 155 125 340 340 348 347 341 356 17 28 20 2 351
142 147 148 157 168 156 152 149 148 156 158 155 154 156 162 159 164 168 158 164 156 343 339 351 349 330 337 341 331 341 342 345
158 167 164 148 155 154 154 156 153 163 163 161 162 164 165 162 162 157 154 199 326 337 329 334 326 306 302 319 315 324 325 306
159 147 143 148 156 159 163 162 162 168 171 172 165 163 169 167 161 148 147 154 325 310 333 334 312 336 311 302 302 306 307 310
150 153 154 157 165 169 172 171 171 169 171 173 174 174 174 166 161 166 191 211 276 312 326 315 315 311 320 306 306 317 321 305
163 163 167 170 175 178 181 177 175 175 178 179 183 181 177 173 176 187 193 223 291 306 314 309 306 304 305 304 328 335 346 310
170 168 169 174 176 182 185 181 179 181 180 181 185 189 187 190 201 195 214 243 285 292 300 300 294 299 293 319 315 300 298 6
181 171 175 176 178 179 184 181 181 179 179 184 182 192 196 203 196 219 224 251 255 283 290 288 287 269 297 309 302 204 353 353
191 191 180 176 177 177 181 183 180 180 181 185 188 196 203 212 212 201 242 254 273 275 299 286 284 260 283 272 276 288 316 321
249 206 164 168 170 170 178 182 179 177 181 182 189 204 208 187 175 272 271 281 273 289 279 271 287 253 260 265 256 258 281 299
22 134 163 165 168 169 176 185 180 180 179 179 195 177 152 137 89 340 313 283 283 274 269 263 277 261 254 255 250 255 268 277
43 78 176 172 169 182 188 190 181 178 171 160 146 152 152 101 350 347 280 268 274 274 264 264 261 255 240 242 244 252 263 275
24 31 135 186 195 196 194 183 177 167 157 138 128 139 133 60 18 295 270 291 298 295 279 266 254 244 241 230 234 236 249 254